Weather History for KIWD - July, 2014

Change the Weather History Date:

Monday, July 28, 2014

  Actual Average Record
Temperature  
Mean Temperature 53 °F -  
Max Temperature 62 °F 74 °F 95 °F (2006)
Min Temperature 44 °F 54 °F 44 °F (2014)
Degree Days  
Heating Degree Days 12    
Growing Degree Days 3 (Base 50)    
Moisture  
Dew Point 51 °F    
Average Humidity 94    
Maximum Humidity 100    
Minimum Humidity 72    
Precipitation  
Precipitation 0.00 in - - ()
Sea Level Pressure  
Sea Level Pressure 30.10 in    
Wind  
Wind Speed 4 mph (West)    
Max Wind Speed 12 mph    
Max Gust Speed -    
Visibility 9 miles    
Events      
Averages and records for this station are not official NWS values.
T = Trace of Precipitation, MM = Missing Value Source: NWS Daily Summary

Daily Weather History Graph

Daily Weather History Graph

Search for Another Location

Airport or City:

Trip Planner

Search our weather history database for the weather conditions in past years. The results will help you decide how hot, cold, wet, or windy it might be!

Date:

Astronomy

Jul. 28, 2014 Rise Set
Actual Time 5:36 AM CDT 8:36 PM CDT
Civil Twilight 5:00 AM CDT 9:12 PM CDT
Nautical Twilight 4:15 AM CDT 9:57 PM CDT
Astronomical Twilight 3:19 AM CDT 10:52 PM CDT
Moon 7:27 AM CDT (7/28) 9:07 PM CDT (7/28)
Length of Visible Light 16h 11m
Length of Day
15h 00m
Waxing Crescent, 3% of the Moon is Illuminated
Jul 28
Waxing Crescent
Aug 3
First Quarter
Aug 10
Full
Aug 17
Last Quarter
Aug 25
New

Hourly Weather History & Observations

Time (CDT) Temp. Windchill Dew Point Humidity Pressure Visibility Wind Dir Wind Speed Gust Speed Precip Events Conditions
1:15 AM 46.4 °F - 46.4 °F 100% 30.08 in 2.5 mi Calm Calm - N/A   Clear
2:15 AM 46.4 °F 44.3 °F 46.4 °F 100% 30.07 in 5.0 mi WSW 4.6 mph - N/A   Clear
2:35 AM 44.6 °F - 42.8 °F 93% 30.08 in 1.2 mi Calm Calm - N/A   Clear
3:15 AM 44.6 °F - 44.6 °F 100% 30.09 in 7.0 mi Calm Calm - N/A   Clear
3:35 AM 44.6 °F - 42.8 °F 93% 30.09 in 10.0 mi Calm Calm - N/A   Clear
3:55 AM 44.6 °F 43.1 °F 44.6 °F 100% 30.09 in 7.0 mi WSW 3.5 mph - N/A   Clear
4:15 AM 44.6 °F 43.1 °F 44.6 °F 100% 30.09 in 8.0 mi WSW 3.5 mph - N/A   Mostly Cloudy
4:35 AM 50.0 °F - 50.0 °F 100% 30.10 in 10.0 mi WSW 6.9 mph - N/A   Overcast
4:55 AM 50.0 °F - 48.2 °F 94% 30.10 in 10.0 mi WSW 3.5 mph - N/A   Overcast
5:15 AM 50.0 °F - 50.0 °F 100% 30.10 in 10.0 mi WSW 3.5 mph - N/A   Overcast
5:35 AM 51.8 °F - 51.8 °F 100% 30.10 in 10.0 mi West 5.8 mph - N/A   Overcast
5:55 AM 50.0 °F - 50.0 °F 100% 30.10 in 10.0 mi WSW 5.8 mph - N/A   Mostly Cloudy
6:15 AM 51.8 °F - 51.8 °F 100% 30.11 in 10.0 mi WSW 5.8 mph - N/A   Mostly Cloudy
6:35 AM 51.8 °F - 51.8 °F 100% 30.11 in 10.0 mi West 4.6 mph - N/A   Mostly Cloudy
6:55 AM 51.8 °F - 51.8 °F 100% 30.11 in 10.0 mi West 5.8 mph - N/A   Mostly Cloudy
7:15 AM 53.6 °F - 53.6 °F 100% 30.11 in 10.0 mi West 5.8 mph - N/A   Mostly Cloudy
7:35 AM 53.6 °F - 51.8 °F 94% 30.12 in 10.0 mi West 6.9 mph - N/A   Mostly Cloudy
7:55 AM 55.4 °F - 55.4 °F 100% 30.12 in 10.0 mi West 6.9 mph - N/A   Mostly Cloudy
8:15 AM 57.2 °F - 55.4 °F 94% 30.12 in 10.0 mi West 5.8 mph - N/A   Scattered Clouds
8:35 AM 59.0 °F - 55.4 °F 88% 30.12 in 10.0 mi WNW 4.6 mph - N/A   Partly Cloudy
8:55 AM 60.8 °F - 55.4 °F 82% 30.12 in 10.0 mi NW 5.8 mph - N/A   Partly Cloudy
9:15 AM 60.8 °F - 55.4 °F 82% 30.13 in 10.0 mi NW 6.9 mph - N/A   Clear
9:35 AM 62.6 °F - 55.4 °F 77% 30.12 in 10.0 mi NW 5.8 mph - N/A   Clear
9:55 AM 62.6 °F - 55.4 °F 77% 30.12 in 10.0 mi North 9.2 mph - N/A   Partly Cloudy
10:15 AM 62.6 °F - 53.6 °F 72% 30.12 in 10.0 mi NW 11.5 mph - N/A   Partly Cloudy